ATLAS 5 CENTAUR DEB, 44003

Orbit data source: Space-Track

ATLAS 5 CENTAUR DEB, 44003 is space debris in HEO originally from a launch on Wed, 17 Sep 2014 UTC launched from the Air Force Eastern Test Range (AFETR). Debris objects in space refer to the collection of defunct objects orbiting the Earth. Examples of debris include non-operational satellites, rocket bodies, and fragments generated from explosions, collisions, or faulty payload assembly.

Loading next visibility...
Identifier
44003, 2014-055BJ
Orbit
HEO
Country
Flag of USUS
Related business
Flag of USUnited Launch Alliance/Lockheed Martin (US)
Manufacturer
Unknown
Mission
Spacecraft
Bus & Motor
Unknown
Mass
Unknown
Launch date (UTC)
2014-09-17 (11 years ago)
Launch vehicle
Unknown
Launch site
Air Force Eastern Test Range (AFETR)
Object type
Payload
Rocket body
Debris
Shape & HBR
Unknown shape, 1.1 m
Radar Cross Section
Small (<0.1 m²)

Expand to show TLE details & history
Last TLE update: 6 days ago

TLE from 6 days ago
0 ATLAS 5 CENTAUR DEB
1 44003U 14055BJ  25281.58803390  .00000005  00000-0  00000-0 0  9995
2 44003  19.4858 200.8800 4654959  68.6931 333.8909  1.81352779 46896
Epoch: 2025-10-08T14:06Z
TLE epoch observation values (Epoch: 2025-10-08T14:06:46.128Z)
Latitude
-0°
Longitude
-28.25088°
Altitude
12,665.03 km
Speed
5.275 km/s
True Right ascension
13h 23m 36s
True Declination
0° 00' 00"
Sunlit
Object was in daylight at epoch
Visualization orbit readout
Latitude
Unknown
Longitude
Unknown
Altitude
Unknown
Speed
Unknown
Apparent Right ascension
Unknown
Apparent Declination
Unknown
Sunlit
N/A
Visualization observer readout
Local Sidereal Time
05:35:26
Azimuth
Unknown
Elevation
Unknown
Doppler factor
Unknown
Orbital elements
Apogee altitude
35,251.158 km
Perigee altitude
8,805.139 km
Semi-major axis
28,406.286 km
Eccentricity
0.4655
Inclination
19.4858°
RAAN
200.88°
Arg. of periapsis
68.6931°
True anomaly
291.17232°
Mean anomaly
333.8909°
Eccentric anomaly
315.04725°
Mean motion
0.45334 °/min
Orbital period
794.11 mins
BSTAR
0
Loading maneuver chart data...
Computing Atmospheric mass density...

Documentation

Showing up to 5 results
|